Hourly Data Report for October 24, 2013

All times are specified in Local Standard Time (LST). Add 1 hour to adjust for Daylight Saving Time where and when it is observed.

OTTAWA INTL A
ONTARIO

45°19'00.000" N
75°40'00.000" W
114.90 m
6106001
71628
YOW

Download Data

Hourly Data (October 2013)
Hourly Data Report for October 24, 2013
Temp Definition
°C
Dew Point Temp Definition
°C
Rel Hum Definition
%
Wind Dir Definition
10's deg

Wind Spd Definition
km/h
Visibility Definition
km
Stn Press Definition
kPa
Hmdx Definition


Wind Chill Definition


Weather Definition


TIME
00:00 Legend Double Dagger -0.2 -3.1 81 21 9 24.1 99.21   -3 LegendNANA
01:00 Legend Double Dagger 0.0 -3.2 79 22 7 24.1 99.17   -2 Mostly Cloudy
02:00 Legend Double Dagger -1.2 -3.6 84 17 8 24.1 99.15   -4 LegendNANA
03:00 Legend Double Dagger -1.8 -4.0 85 21 5 24.1 99.12   -4 LegendNANA
04:00 Legend Double Dagger -1.9 -3.6 88 23 7 24.1 99.12   -5 Clear
05:00 Legend Double Dagger -2.3 -3.7 90 21 7 24.1 99.13   -5 LegendNANA
06:00 Legend Double Dagger -2.7 -3.8 92 22 9 24.1 99.15   -6 LegendNANA
07:00 Legend Double Dagger -1.1 -2.1 93 23 12 24.1 99.18   -5 Mainly Clear
08:00 Legend Double Dagger 0.5 -0.8 91 23 13 24.1 99.24     LegendNANA
09:00 Legend Double Dagger 2.8 -0.7 78 26 23 24.1 99.26     LegendNANA
10:00 Legend Double Dagger 3.4 -1.6 70 26 27 24.1 99.28     Mostly Cloudy
11:00 Legend Double Dagger 4.1 -1.5 67 26 22 24.1 99.32     LegendNANA
12:00 Legend Double Dagger 4.4 -0.8 69 27 20 24.1 99.31     LegendNANA
13:00 Legend Double Dagger 4.8 -0.2 70 28 19 24.1 99.31     Cloudy
14:00 Legend Double Dagger 5.4 -0.9 64 28 26 24.1 99.36     LegendNANA
15:00 Legend Double Dagger 5.6 -0.2 66 28 21 24.1 99.43     LegendNANA
16:00 Legend Double Dagger 5.1 0.3 71 28 25 24.1 99.51     Mostly Cloudy
17:00 Legend Double Dagger 4.3 0.5 76 27 24 24.1 99.61     LegendNANA
18:00 Legend Double Dagger 3.9 0.1 76 27 20 24.1 99.69     LegendNANA
19:00 Legend Double Dagger 3.9 -0.3 74 28 21 24.1 99.76     Cloudy
20:00 Legend Double Dagger 3.0 -0.8 76 27 19 24.1 99.80     LegendNANA
21:00 Legend Double Dagger 1.8 -1.1 81 28 15 24.1 99.84     LegendNANA
22:00 Legend Double Dagger 1.5 -1.4 81 27 13 24.1 99.88     Mainly Clear
23:00 Legend Double Dagger 1.1 -1.8 81 27 17 24.1 99.92     LegendNANA

Notes on Data Quality.

Legend

  • E = Estimated
  • M = Missing
  • NA = Not Available
  • ‡ = Partner data that is not subject to review by the National Climate Archives
Date modified: